Time,TemperatureF,DewpointF,PressureIn,WindDirection,WindDirectionDegrees,WindSpeedMPH,WindSpeedGustMPH,Humidity,HourlyPrecipIn,Conditions,Clouds,dailyrainin,SoftwareType,DateUTC
2013-03-15 00:02:00,54.0,-99.9,30.12,South,169,8.0,11.0,-999,-99.99,,,-99.99,,2013-03-15 07:02:00,
2013-03-15 00:13:00,54.0,-99.9,30.13,SSE,166,6.0,9.0,-999,-99.99,,,-99.99,,2013-03-15 07:13:00,
2013-03-15 00:22:00,53.0,-99.9,30.13,South,182,4.0,8.0,-999,-99.99,,,-99.99,,2013-03-15 07:22:00,
2013-03-15 00:32:00,53.0,-99.9,30.13,South,186,4.0,5.0,-999,-99.99,,,-99.99,,2013-03-15 07:32:00,
2013-03-15 00:52:00,53.0,-99.9,30.13,SSW,202,8.0,11.0,-999,-99.99,,,-99.99,,2013-03-15 07:52:00,
2013-03-15 01:02:00,52.0,-99.9,30.13,SSW,204,8.0,11.0,-999,-99.99,,,-99.99,,2013-03-15 08:02:00,
2013-03-15 01:12:00,53.0,-99.9,30.13,SSW,203,7.0,9.0,-999,-99.99,,,-99.99,,2013-03-15 08:12:00,
2013-03-15 01:23:00,52.0,-99.9,30.13,South,185,6.0,8.0,-999,-99.99,,,-99.99,,2013-03-15 08:23:00,
2013-03-15 01:33:00,52.0,-99.9,30.13,South,180,4.0,7.0,-999,-99.99,,,-99.99,,2013-03-15 08:33:00,
2013-03-15 01:42:00,52.0,-99.9,30.13,South,180,4.0,7.0,-999,-99.99,,,-99.99,,2013-03-15 08:42:00,
2013-03-15 01:53:00,53.0,-99.9,30.14,South,190,3.0,7.0,-999,-99.99,,,-99.99,,2013-03-15 08:53:00,
2013-03-15 02:02:00,53.0,-99.9,30.14,SSW,199,5.0,6.0,-999,-99.99,,,-99.99,,2013-03-15 09:02:00,
2013-03-15 02:12:00,53.0,-99.9,30.13,South,176,3.0,5.0,-999,-99.99,,,-99.99,,2013-03-15 09:12:00,
2013-03-15 02:22:00,52.0,-99.9,30.13,South,171,5.0,6.0,-999,-99.99,,,-99.99,,2013-03-15 09:22:00,
2013-03-15 02:33:00,53.0,-99.9,30.13,SSW,210,4.0,7.0,-999,-99.99,,,-99.99,,2013-03-15 09:33:00,
2013-03-15 02:43:00,52.0,-99.9,30.12,South,175,6.0,8.0,-999,-99.99,,,-99.99,,2013-03-15 09:43:00,
2013-03-15 02:53:00,51.0,-99.9,30.13,South,169,6.0,9.0,-999,-99.99,,,-99.99,,2013-03-15 09:53:00,
2013-03-15 03:03:00,52.0,-99.9,30.12,SSE,158,5.0,7.0,-999,-99.99,,,-99.99,,2013-03-15 10:03:00,
2013-03-15 03:13:00,52.0,-99.9,30.12,SSE,158,5.0,7.0,-999,-99.99,,,-99.99,,2013-03-15 10:13:00,
2013-03-15 03:23:00,52.0,-99.9,30.11,South,188,5.0,7.0,-999,-99.99,,,-99.99,,2013-03-15 10:23:00,
2013-03-15 03:33:00,52.0,-99.9,30.11,South,182,4.0,7.0,-999,-99.99,,,-99.99,,2013-03-15 10:33:00,
2013-03-15 03:43:00,52.0,-99.9,30.11,South,175,4.0,6.0,-999,-99.99,,,-99.99,,2013-03-15 10:43:00,
2013-03-15 03:52:00,52.0,-99.9,30.12,SSW,195,2.0,4.0,-999,-99.99,,,-99.99,,2013-03-15 10:52:00,
2013-03-15 04:03:00,52.0,-99.9,30.13,WNW,295,4.0,5.0,-999,-99.99,,,-99.99,,2013-03-15 11:03:00,
2013-03-15 04:12:00,52.0,-99.9,30.12,West,259,3.0,5.0,-999,-99.99,,,-99.99,,2013-03-15 11:12:00,
2013-03-15 04:23:00,51.0,-99.9,30.12,South,176,4.0,5.0,-999,-99.99,,,-99.99,,2013-03-15 11:23:00,
2013-03-15 04:33:00,51.0,-99.9,30.12,South,177,4.0,5.0,-999,-99.99,,,-99.99,,2013-03-15 11:33:00,
2013-03-15 04:43:00,52.0,-99.9,30.11,SSE,166,5.0,6.0,-999,-99.99,,,-99.99,,2013-03-15 11:43:00,
2013-03-15 04:53:00,52.0,-99.9,30.11,SE,144,3.0,4.0,-999,-99.99,,,-99.99,,2013-03-15 11:53:00,
2013-03-15 05:02:00,51.0,-99.9,30.11,South,172,7.0,10.0,-999,-99.99,,,-99.99,,2013-03-15 12:02:00,
2013-03-15 05:12:00,51.0,-99.9,30.11,SSE,168,6.0,9.0,-999,-99.99,,,-99.99,,2013-03-15 12:12:00,
2013-03-15 05:23:00,51.0,-99.9,30.11,South,174,5.0,8.0,-999,-99.99,,,-99.99,,2013-03-15 12:23:00,
2013-03-15 05:32:00,52.0,-99.9,30.11,South,179,4.0,7.0,-999,-99.99,,,-99.99,,2013-03-15 12:32:00,
2013-03-15 05:42:00,52.0,-99.9,30.11,South,174,4.0,5.0,-999,-99.99,,,-99.99,,2013-03-15 12:42:00,
2013-03-15 05:52:00,52.0,-99.9,30.11,SSE,149,3.0,6.0,-999,-99.99,,,-99.99,,2013-03-15 12:52:00,
2013-03-15 06:02:00,52.0,-99.9,30.11,SE,141,4.0,6.0,-999,-99.99,,,-99.99,,2013-03-15 13:02:00,
2013-03-15 06:12:00,52.0,-99.9,30.10,SSE,150,3.0,7.0,-999,-99.99,,,-99.99,,2013-03-15 13:12:00,
2013-03-15 06:22:00,52.0,-99.9,30.10,SSE,154,3.0,6.0,-999,-99.99,,,-99.99,,2013-03-15 13:22:00,
2013-03-15 06:42:00,52.0,-99.9,30.11,South,182,4.0,6.0,-999,-99.99,,,-99.99,,2013-03-15 13:42:00,
2013-03-15 06:53:00,52.0,-99.9,30.11,SSW,212,3.0,5.0,-999,-99.99,,,-99.99,,2013-03-15 13:53:00,
2013-03-15 07:02:00,52.0,-99.9,30.11,SSW,203,2.0,3.0,-999,-99.99,,,-99.99,,2013-03-15 14:02:00,
2013-03-15 07:12:00,52.0,-99.9,30.11,WNW,290,2.0,2.0,-999,-99.99,,,-99.99,,2013-03-15 14:12:00,
2013-03-15 07:22:00,51.0,-99.9,30.11,West,263,1.0,3.0,-999,-99.99,,,-99.99,,2013-03-15 14:22:00,
2013-03-15 07:33:00,51.0,-99.9,30.12,WNW,286,1.0,2.0,-999,-99.99,,,-99.99,,2013-03-15 14:33:00,
2013-03-15 07:42:00,51.0,-99.9,30.12,West,277,1.0,2.0,-999,-99.99,,,-99.99,,2013-03-15 14:42:00,
2013-03-15 07:53:00,51.0,-99.9,30.12,NNE,31,-999.0,0.0,-999,-99.99,,,-99.99,,2013-03-15 14:53:00,
2013-03-15 08:02:00,52.0,-99.9,30.11,SE,127,-999.0,2.0,-999,-99.99,,,-99.99,,2013-03-15 15:02:00,
2013-03-15 08:13:00,52.0,-99.9,30.11,SE,129,2.0,3.0,-999,-99.99,,,-99.99,,2013-03-15 15:13:00,
2013-03-15 08:23:00,52.0,-99.9,30.11,SE,138,2.0,3.0,-999,-99.99,,,-99.99,,2013-03-15 15:23:00,
2013-03-15 08:33:00,52.0,-99.9,30.11,South,184,1.0,2.0,-999,-99.99,,,-99.99,,2013-03-15 15:33:00,
2013-03-15 08:53:00,52.0,-99.9,30.11,ESE,116,2.0,3.0,-999,-99.99,,,-99.99,,2013-03-15 15:53:00,
2013-03-15 09:03:00,52.0,-99.9,30.12,South,188,0.0,1.0,-999,-99.99,,,-99.99,,2013-03-15 16:03:00,
2013-03-15 09:13:00,52.0,-99.9,30.12,South,177,1.0,2.0,-999,-99.99,,,-99.99,,2013-03-15 16:13:00,
2013-03-15 09:23:00,52.0,-99.9,30.12,West,269,2.0,3.0,-999,-99.99,,,-99.99,,2013-03-15 16:23:00,
2013-03-15 09:32:00,52.0,-99.9,30.12,WNW,290,4.0,5.0,-999,-99.99,,,-99.99,,2013-03-15 16:32:00,
2013-03-15 09:42:00,52.0,-99.9,30.12,WSW,255,3.0,4.0,-999,-99.99,,,-99.99,,2013-03-15 16:42:00,
2013-03-15 09:53:00,52.0,-99.9,30.13,West,260,2.0,4.0,-999,-99.99,,,-99.99,,2013-03-15 16:53:00,
2013-03-15 10:02:00,52.0,-99.9,30.13,NW,315,1.0,2.0,-999,-99.99,,,-99.99,,2013-03-15 17:02:00,
2013-03-15 10:12:00,53.0,-99.9,30.13,West,270,-999.0,1.0,-999,-99.99,,,-99.99,,2013-03-15 17:12:00,
2013-03-15 10:23:00,53.0,-99.9,30.14,WNW,285,2.0,2.0,-999,-99.99,,,-99.99,,2013-03-15 17:23:00,
2013-03-15 10:33:00,53.0,-99.9,30.14,WNW,290,1.0,2.0,-999,-99.99,,,-99.99,,2013-03-15 17:33:00,
2013-03-15 10:43:00,53.0,-99.9,30.14,North,356,1.0,2.0,-999,-99.99,,,-99.99,,2013-03-15 17:43:00,
2013-03-15 10:53:00,54.0,-99.9,30.14,North,359,-999.0,1.0,-999,-99.99,,,-99.99,,2013-03-15 17:53:00,
2013-03-15 11:03:00,54.0,-99.9,30.14,NNE,25,1.0,1.0,-999,-99.99,,,-99.99,,2013-03-15 18:03:00,
2013-03-15 11:12:00,55.0,-99.9,30.13,SE,146,2.0,3.0,-999,-99.99,,,-99.99,,2013-03-15 18:12:00,
2013-03-15 11:22:00,55.0,-99.9,30.13,SE,142,2.0,4.0,-999,-99.99,,,-99.99,,2013-03-15 18:22:00,
2013-03-15 11:32:00,55.0,-99.9,30.13,SSE,147,2.0,5.0,-999,-99.99,,,-99.99,,2013-03-15 18:32:00,
2013-03-15 11:53:00,55.0,-99.9,30.12,SSE,151,4.0,6.0,-999,-99.99,,,-99.99,,2013-03-15 18:53:00,
2013-03-15 12:02:00,55.0,-99.9,30.12,SSE,150,3.0,6.0,-999,-99.99,,,-99.99,,2013-03-15 19:02:00,
2013-03-15 12:12:00,56.0,-99.9,30.12,SSE,156,4.0,7.0,-999,-99.99,,,-99.99,,2013-03-15 19:12:00,
2013-03-15 12:23:00,55.0,-99.9,30.12,SSE,159,5.0,6.0,-999,-99.99,,,-99.99,,2013-03-15 19:23:00,
2013-03-15 12:32:00,56.0,-99.9,30.11,SE,133,2.0,5.0,-999,-99.99,,,-99.99,,2013-03-15 19:32:00,
2013-03-15 12:42:00,57.0,-99.9,30.11,SSE,152,2.0,4.0,-999,-99.99,,,-99.99,,2013-03-15 19:42:00,
2013-03-15 12:53:00,56.0,-99.9,30.11,SSE,161,2.0,3.0,-999,-99.99,,,-99.99,,2013-03-15 19:53:00,
2013-03-15 13:03:00,56.0,-99.9,30.11,South,172,3.0,3.0,-999,-99.99,,,-99.99,,2013-03-15 20:03:00,
2013-03-15 13:12:00,57.0,-99.9,30.10,SSE,155,3.0,4.0,-999,-99.99,,,-99.99,,2013-03-15 20:12:00,
2013-03-15 13:22:00,56.0,-99.9,30.10,SSE,162,4.0,5.0,-999,-99.99,,,-99.99,,2013-03-15 20:22:00,
2013-03-15 13:32:00,57.0,-99.9,30.10,South,169,4.0,5.0,-999,-99.99,,,-99.99,,2013-03-15 20:32:00,
2013-03-15 13:42:00,58.0,-99.9,30.10,South,176,4.0,5.0,-999,-99.99,,,-99.99,,2013-03-15 20:42:00,
2013-03-15 13:52:00,58.0,-99.9,30.09,South,170,3.0,4.0,-999,-99.99,,,-99.99,,2013-03-15 20:52:00,
2013-03-15 14:12:00,59.0,-99.9,30.09,South,183,4.0,5.0,-999,-99.99,,,-99.99,,2013-03-15 21:12:00,
2013-03-15 14:22:00,59.0,-99.9,30.09,South,182,3.0,5.0,-999,-99.99,,,-99.99,,2013-03-15 21:22:00,
2013-03-15 14:33:00,59.0,-99.9,30.08,South,178,5.0,6.0,-999,-99.99,,,-99.99,,2013-03-15 21:33:00,
2013-03-15 14:43:00,60.0,-99.9,30.09,South,187,5.0,7.0,-999,-99.99,,,-99.99,,2013-03-15 21:43:00,
2013-03-15 14:53:00,60.0,-99.9,30.09,South,191,6.0,8.0,-999,-99.99,,,-99.99,,2013-03-15 21:53:00,
2013-03-15 15:04:00,59.0,-99.9,30.09,South,188,8.0,10.0,-999,-99.99,,,-99.99,,2013-03-15 22:04:00,
2013-03-15 15:14:00,59.0,-99.9,30.09,SSW,192,8.0,10.0,-999,-99.99,,,-99.99,,2013-03-15 22:14:00,
2013-03-15 15:22:00,60.0,-99.9,30.09,South,183,5.0,8.0,-999,-99.99,,,-99.99,,2013-03-15 22:22:00,
2013-03-15 15:33:00,60.0,-99.9,30.08,South,174,7.0,10.0,-999,-99.99,,,-99.99,,2013-03-15 22:33:00,
2013-03-15 15:42:00,58.0,-99.9,30.07,SSE,161,7.0,8.0,-999,-99.99,,,-99.99,,2013-03-15 22:42:00,
2013-03-15 15:53:00,60.0,-99.9,30.07,SSE,155,5.0,7.0,-999,-99.99,,,-99.99,,2013-03-15 22:53:00,
2013-03-15 16:03:00,59.0,-99.9,30.06,SE,142,3.0,6.0,-999,-99.99,,,-99.99,,2013-03-15 23:03:00,
2013-03-15 16:12:00,57.0,-99.9,30.06,SSE,162,6.0,7.0,-999,-99.99,,,-99.99,,2013-03-15 23:12:00,
2013-03-15 16:22:00,58.0,-99.9,30.06,SSE,159,5.0,7.0,-999,-99.99,,,-99.99,,2013-03-15 23:22:00,
2013-03-15 16:42:00,60.0,-99.9,30.06,SSE,166,5.0,6.0,-999,-99.99,,,-99.99,,2013-03-15 23:42:00,
2013-03-15 16:53:00,59.0,-99.9,30.06,SSE,161,6.0,7.0,-999,-99.99,,,-99.99,,2013-03-15 23:53:00,
2013-03-15 17:03:00,58.0,-99.9,30.06,SSE,168,5.0,7.0,-999,-99.99,,,-99.99,,2013-03-16 00:03:00,
2013-03-15 17:22:00,59.0,-99.9,30.06,South,172,7.0,10.0,-999,-99.99,,,-99.99,,2013-03-16 00:22:00,
2013-03-15 17:32:00,59.0,-99.9,30.06,South,172,7.0,10.0,-999,-99.99,,,-99.99,,2013-03-16 00:32:00,
2013-03-15 17:42:00,58.0,-99.9,30.06,East,83,4.0,6.0,-999,-99.99,,,-99.99,,2013-03-16 00:42:00,
2013-03-15 17:52:00,58.0,-99.9,30.06,ESE,122,3.0,6.0,-999,-99.99,,,-99.99,,2013-03-16 00:52:00,
2013-03-15 18:03:00,58.0,-99.9,30.06,SE,141,2.0,4.0,-999,-99.99,,,-99.99,,2013-03-16 01:03:00,
2013-03-15 18:12:00,59.0,-99.9,30.06,SE,132,3.0,5.0,-999,-99.99,,,-99.99,,2013-03-16 01:12:00,
2013-03-15 18:22:00,59.0,-99.9,30.06,SE,134,1.0,5.0,-999,-99.99,,,-99.99,,2013-03-16 01:22:00,
2013-03-15 18:32:00,61.0,-99.9,30.05,North,10,3.0,5.0,-999,-99.99,,,-99.99,,2013-03-16 01:32:00,
2013-03-15 18:42:00,59.0,-99.9,30.05,ESE,105,3.0,5.0,-999,-99.99,,,-99.99,,2013-03-16 01:42:00,
2013-03-15 19:13:00,58.0,-99.9,30.05,SE,130,3.0,5.0,-999,-99.99,,,-99.99,,2013-03-16 02:13:00,
2013-03-15 19:23:00,57.0,-99.9,30.05,South,171,6.0,8.0,-999,-99.99,,,-99.99,,2013-03-16 02:23:00,
2013-03-15 19:33:00,56.0,-99.9,30.05,South,177,6.0,9.0,-999,-99.99,,,-99.99,,2013-03-16 02:33:00,
2013-03-15 19:43:00,57.0,-99.9,30.05,SSW,194,4.0,6.0,-999,-99.99,,,-99.99,,2013-03-16 02:43:00,
2013-03-15 19:53:00,56.0,-99.9,30.05,SSW,198,7.0,10.0,-999,-99.99,,,-99.99,,2013-03-16 02:53:00,
2013-03-15 20:02:00,55.0,-99.9,30.04,SSW,193,8.0,11.0,-999,-99.99,,,-99.99,,2013-03-16 03:02:00,
2013-03-15 20:12:00,55.0,-99.9,30.04,SSW,198,7.0,10.0,-999,-99.99,,,-99.99,,2013-03-16 03:12:00,
2013-03-15 20:22:00,55.0,-99.9,30.05,SSE,165,6.0,9.0,-999,-99.99,,,-99.99,,2013-03-16 03:22:00,
2013-03-15 20:33:00,55.0,-99.9,30.05,SE,133,3.0,5.0,-999,-99.99,,,-99.99,,2013-03-16 03:33:00,
2013-03-15 20:43:00,55.0,-99.9,30.04,SE,141,3.0,4.0,-999,-99.99,,,-99.99,,2013-03-16 03:43:00,
2013-03-15 20:53:00,55.0,-99.9,30.05,SE,140,2.0,5.0,-999,-99.99,,,-99.99,,2013-03-16 03:53:00,
2013-03-15 21:03:00,55.0,-99.9,30.05,South,182,5.0,6.0,-999,-99.99,,,-99.99,,2013-03-16 04:03:00,
2013-03-15 21:13:00,55.0,-99.9,30.05,SSW,204,4.0,6.0,-999,-99.99,,,-99.99,,2013-03-16 04:13:00,
2013-03-15 21:23:00,55.0,-99.9,30.06,South,185,5.0,8.0,-999,-99.99,,,-99.99,,2013-03-16 04:23:00,
2013-03-15 21:43:00,54.0,-99.9,30.06,SSW,198,9.0,12.0,-999,-99.99,,,-99.99,,2013-03-16 04:43:00,
2013-03-15 21:53:00,54.0,-99.9,30.06,SSW,201,7.0,10.0,-999,-99.99,,,-99.99,,2013-03-16 04:53:00,
2013-03-15 22:03:00,54.0,-99.9,30.07,SSW,213,4.0,8.0,-999,-99.99,,,-99.99,,2013-03-16 05:03:00,
2013-03-15 22:12:00,55.0,-99.9,30.07,WSW,258,2.0,3.0,-999,-99.99,,,-99.99,,2013-03-16 05:12:00,
2013-03-15 22:22:00,55.0,-99.9,30.08,SW,228,2.0,3.0,-999,-99.99,,,-99.99,,2013-03-16 05:22:00,
2013-03-15 22:32:00,55.0,-99.9,30.08,ENE,78,2.0,4.0,-999,-99.99,,,-99.99,,2013-03-16 05:32:00,
2013-03-15 22:42:00,55.0,-99.9,30.08,ENE,78,2.0,4.0,-999,-99.99,,,-99.99,,2013-03-16 05:42:00,
2013-03-15 22:53:00,54.0,-99.9,30.07,SE,128,3.0,5.0,-999,-99.99,,,-99.99,,2013-03-16 05:53:00,
2013-03-15 23:02:00,54.0,-99.9,30.07,SE,133,2.0,4.0,-999,-99.99,,,-99.99,,2013-03-16 06:02:00,
2013-03-15 23:12:00,54.0,-99.9,30.07,SE,124,3.0,5.0,-999,-99.99,,,-99.99,,2013-03-16 06:12:00,
2013-03-15 23:22:00,54.0,-99.9,30.07,SE,139,4.0,7.0,-999,-99.99,,,-99.99,,2013-03-16 06:22:00,
2013-03-15 23:32:00,53.0,-99.9,30.07,SE,141,4.0,6.0,-999,-99.99,,,-99.99,,2013-03-16 06:32:00,
2013-03-15 23:42:00,53.0,-99.9,30.08,SE,143,4.0,8.0,-999,-99.99,,,-99.99,,2013-03-16 06:42:00,
2013-03-15 23:52:00,53.0,-99.9,30.08,SE,132,3.0,8.0,-999,-99.99,,,-99.99,,2013-03-16 06:52:00,